STRAND-1

Last updated on Mon Sep 15 2025 00:03:09 GMT+0000 (Coordinated Universal Time)

1 39090U 13009E 25256.77430931 .00000256 00000+0 10086-3 0 9998 2 39090 98.3856 78.9678 0008355 345.0329 15.0609 14.36886877657360
UTC large
Height (km)
Speed (km/s)
/
Latitude / Longitude
Inclination (degrees)
Orbital Period (minutes)
Azimuth
Elevation
Range (km)
Doppler Factor

Next 0 passes for location: London (51.5072 / 0.1276)

Sorry there are no passes over London.